Home > Weather > Kaiserslautern > Past weeks

Flag for Germany Weather for the Past 2 Weeks in Kaiserslautern, Rhineland-Palatinate, Germany

Now
41 °F

Light rain. Mostly cloudy.


Feels Like: 38 °F
Forecast: 35 / 43 °F
Wind: 5 mph from Southeast

Location: Ramstein

Current Time: Feb 13, 2016 at 5:07:20 PM

Latest Report: Feb 13, 2016 at 4:00 PM


Visibility: N/A

Pressure: 29.10 "Hg

Humidity: 100%

Dew point: 41 °F

Location of KaiserslauternLocation

Historic Weather in Kaiserslautern — Graph

°F

Kaiserslautern Temperature Yesterday

Maximum temperature yesterday: 41 °F (at 1:58 PM)
Minimum temperature yesterday: 32 °F (at 12:01 AM)
Average temperature yesterday: 36 °F

High & Low Weather Summary for the Past Weeks

 TemperatureHumidityPressure
High57 °F (Feb 6, 3:58 PM)100% (Jan 30, 8:00 PM)30.39 "Hg (Jan 30, 8:00 PM)
Low32 °F (Feb 5, 3:58 AM)55% (Feb 6, 3:58 PM)29.08 "Hg (Feb 9, 3:58 PM)
Average43 °F89%29.85 "Hg
* Reported Jan 29 3:58 PM — Feb 13 3:59 PM, Kaiserslautern, Weather by CustomWeather, © 2016

Note: Actual official high and low records may vary slightly from our data, if they occured in-between our weather recording intervals... More about our weather records

Advertising

Kaiserslautern Weather History for the Previous 24 Hours

 ConditionsComfort  
Time TempWeatherWind HumidityBarometerVisibility
3:59 PM
Sat, Feb 13
41 °FLight rain. Mostly cloudy.5 mph100%29.10 "HgN/A
2:58 PM41 °FLight rain. Overcast.5 mph98%29.16 "HgN/A
1:58 PM41 °FLight rain. Partly sunny.5 mph98%29.21 "HgN/A
1:00 PM39 °FLight rain. More clouds than sun.3 mph100%29.21 "HgN/A
12:58 PM39 °FDrizzle. Mostly cloudy.3 mph100%29.25 "HgN/A
11:58 AM38 °FLow clouds.No wind97%29.28 "HgN/A
11:00 AM37 °FMostly cloudy.5 mph93%29.27 "HgN/A
10:04 AM37 °FCloudy.2 mph93%29.29 "HgN/A
8:58 AM37 °FLow clouds.5 mph93%29.34 "HgN/A
8:04 AM36 °FLow clouds.No wind100%29.32 "HgN/A
7:58 AM36 °FLow clouds.No wind100%29.36 "HgN/A
6:58 AM35 °FLow clouds.No wind95%29.36 "HgN/A
5:58 AM34 °FOvercast.No wind93%29.36 "HgN/A
4:58 AM36 °FOvercast.No wind87%29.37 "HgN/A
3:58 AM34 °FPassing clouds.No wind97%29.38 "HgN/A
2:58 AM35 °FOvercast.2 mph91%29.37 "HgN/A
1:58 AM32 °FOvercast.No wind98%29.36 "HgN/A
12:58 AM33 °FMostly cloudy.No wind93%29.37 "HgN/A
11:58 PM
Fri, Feb 12
33 °FPassing clouds.No wind91%29.36 "HgN/A
10:58 PM33 °FClear.6 mph91%29.36 "HgN/A
9:58 PM36 °FClear.3 mph91%29.38 "HgN/A
8:58 PM36 °FOvercast.3 mph84%29.39 "HgN/A
7:58 PM36 °FPassing clouds.2 mph87%29.39 "HgN/A
6:58 PM39 °FClear.6 mph78%29.39 "HgN/A
5:58 PM39 °FPassing clouds.6 mph75%29.39 "HgN/A
Weather by CustomWeather, © 2016

See weather overviewHow to use our weather pages